EW7070 Weather Reports


Display with metric or nautical units.
time (UTC)temp
F
wind
direction
speed
MPH
gust
MPH
rain 1hr
in
rain 24hr
in
rain mn
in
humidity
%
barometer
mb
20260903180009 83 314 1.0 9.0 0.00 0.00 0.00 51 1008.6
20260903175442 82 245 3.0 9.0 0.00 0.00 0.00 51 1008.6
20260903174941 82 19 4.0 9.0 0.00 0.00 0.00 52 1008.6
20260903174437 82 276 3.0 14.0 0.00 0.00 0.00 49 1008.8
20260903173932 83 320 4.0 14.0 0.00 0.00 0.00 52 1008.8
20260903173422 83 266 6.0 16.0 0.00 0.00 0.00 49 1008.7
20260903172922 83 262 7.0 16.0 0.00 0.00 0.00 50 1008.7
20260903172421 84 306 7.0 17.0 0.00 0.00 0.00 48 1008.8
20260903171856 84 339 6.0 17.0 0.00 0.00 0.00 48 1008.8
20260903171332 84 8 5.0 12.0 0.00 0.00 0.00 51 1008.8
20260903170828 83 353 5.0 13.0 0.00 0.00 0.00 53 1009.0
20260903170327 83 326 6.0 13.0 0.00 0.00 0.00 52 1009.1
20260903165759 82 337 5.0 14.0 0.00 0.00 0.00 52 1009.3
20260903165250 82 94 4.0 15.0 0.00 0.00 0.00 54 1009.3
20260903164751 82 349 5.0 11.0 0.00 0.00 0.00 54 1009.5
20260903164502 82 14 5.0 12.0 0.00 0.00 0.00 51 1009.6
20260903163730 82 343 5.0 13.0 0.00 0.00 0.00 51 1009.7
20260903163223 82 301 7.0 17.0 0.00 0.00 0.00 52 1009.7
20260903162941 82 323 6.0 17.0 0.00 0.00 0.00 51 1009.9
20260903162204 82 316 5.0 14.0 0.00 0.00 0.00 52 1010.0
20260903161657 82 33 7.0 15.0 0.00 0.00 0.00 51 1010.0
20260903161419 82 345 8.0 21.0 0.00 0.00 0.00 53 1010.0
20260903160640 82 344 7.0 21.0 0.00 0.00 0.00 51 1010.2
20260903160113 83 282 7.0 15.0 0.00 0.00 0.00 54 1010.3
20260903155608 82 312 9.0 20.0 0.00 0.00 0.00 56 1010.4
20260903155043 82 322 7.0 20.0 0.00 0.00 0.00 55 1010.5
20260903154543 82 308 4.0 13.0 0.00 0.00 0.00 59 1010.7
20260903154027 82 345 4.0 11.0 0.00 0.00 0.00 59 1010.7
20260903153526 81 358 4.0 11.0 0.00 0.00 0.00 60 1010.9
20260903153004 81 0 4.0 12.0 0.00 0.00 0.00 62 1011.0
20260903152436 80 310 5.0 12.0 0.00 0.00 0.00 63 1011.0
20260903151934 80 341 5.0 13.0 0.00 0.00 0.00 65 1011.1
20260903151432 79 343 5.0 13.0 0.00 0.00 0.00 61 1011.2
20260903150924 79 295 5.0 10.0 0.00 0.00 0.00 62 1011.5
20260903150425 79 39 6.0 12.0 0.00 0.00 0.00 61 1011.6
20260903145904 78 35 7.0 12.0 0.00 0.00 0.00 62 1011.8
20260903145336 78 343 6.0 12.0 0.00 0.00 0.00 62 1011.9
20260903144808 78 18 6.0 13.0 0.00 0.00 0.00 61 1011.9
20260903144254 78 47 5.0 13.0 0.00 0.00 0.00 62 1012.1
20260903143754 78 10 5.0 11.0 0.00 0.00 0.00 62 1012.2
20260903143254 78 15 5.0 10.0 0.00 0.00 0.00 63 1012.2
20260903142752 77 65 4.0 10.0 0.00 0.00 0.00 64 1012.3
20260903142253 77 7 4.0 9.0 0.00 0.00 0.00 65 1012.4
20260903141754 77 337 4.0 9.0 0.00 0.00 0.00 65 1012.5
20260903141521 76 12 5.0 10.0 0.00 0.00 0.00 66 1012.5
20260903140749 76 353 6.0 15.0 0.00 0.00 0.00 65 1012.7
20260903140221 76 352 5.0 15.0 0.00 0.00 0.00 64 1012.8
20260903135715 76 273 5.0 12.0 0.00 0.00 0.00 64 1012.8
20260903135149 75 337 5.0 12.0 0.00 0.00 0.00 65 1012.8
20260903134645 75 22 5.0 10.0 0.00 0.00 0.00 64 1012.9
20260903134114 75 35 4.0 11.0 0.00 0.00 0.00 65 1012.8
20260903133613 74 42 5.0 14.0 0.00 0.00 0.00 65 1013.1
20260903133333 74 347 5.0 14.0 0.00 0.00 0.00 65 1012.9
20260903132601 74 280 6.0 14.0 0.00 0.00 0.00 67 1013.0
20260903132033 73 334 5.0 14.0 0.00 0.00 0.00 66 1013.1
20260903131507 73 3 5.0 10.0 0.00 0.00 0.00 67 1013.2
20260903131231 73 33 5.0 14.0 0.00 0.00 0.00 67 1013.3
20260903130458 72 44 6.0 14.0 0.00 0.00 0.00 68 1013.5
20260903125942 71 334 4.0 10.0 0.00 0.00 0.00 70 1013.5
20260903125438 71 266 4.0 9.0 0.00 0.00 0.00 72 1013.7
20260903124939 71 299 5.0 9.0 0.00 0.00 0.00 71 1013.9
20260903124413 70 348 4.0 9.0 0.00 0.00 0.00 72 1013.8
20260903123848 69 322 3.0 8.0 0.00 0.00 0.00 72 1013.8
20260903123321 69 351 3.0 8.0 0.00 0.00 0.00 76 1013.9
20260903122817 68 301 2.0 7.0 0.00 0.00 0.00 77 1013.9
20260903122754 67 314 3.0 7.0 0.00 0.00 0.00 77 1014.0
20260903121750 67 260 3.0 8.0 0.00 0.00 0.00 78 1014.0
20260903121249 66 260 4.0 8.0 0.00 0.00 0.00 79 1014.0
20260903120749 66 291 4.0 8.0 0.00 0.00 0.00 78 1014.1
20260903120250 65 291 4.0 8.0 0.00 0.00 0.00 79 1014.0
20260903115746 65 292 4.0 8.0 0.00 0.00 0.00 81 1014.1
20260903115242 64 283 4.0 8.0 0.00 0.00 0.00 81 1014.1
20260903114715 64 294 5.0 10.0 0.00 0.00 0.00 81 1014.1
20260903114150 63 297 5.0 10.0 0.00 0.00 0.00 81 1014.2
20260903113621 63 299 5.0 10.0 0.00 0.00 0.00 81 1014.1
20260903113120 62 318 3.0 9.0 0.00 0.00 0.00 83 1014.2
20260903112608 62 328 3.0 9.0 0.00 0.00 0.00 83 1014.0
20260903112043 61 288 4.0 10.0 0.00 0.00 0.00 84 1014.1
20260903111527 61 304 3.0 10.0 0.00 0.00 0.00 84 1014.1
20260903111028 60 312 3.0 10.0 0.00 0.00 0.00 85 1014.0
20260903110523 60 342 3.0 8.0 0.00 0.00 0.00 86 1014.1
20260903110018 59 292 4.0 7.0 0.00 0.00 0.00 87 1014.0
20260903105514 59 274 5.0 10.0 0.00 0.00 0.00 87 1013.9
20260903105010 59 278 5.0 10.0 0.00 0.00 0.00 88 1014.0
20260903104511 58 262 4.0 8.0 0.00 0.00 0.00 89 1013.8
20260903104007 58 263 3.0 7.0 0.00 0.00 0.00 91 1013.7
20260903103508 57 262 1.0 6.0 0.00 0.00 0.00 93 1013.6
20260903103010 57 45 0.0 4.0 0.00 0.00 0.00 93 1013.4
20260903102453 56 270 0.0 3.0 0.00 0.00 0.00 93 1013.1
20260903102225 56 12 0.0 3.0 0.00 0.00 0.00 91 1013.0
20260903101426 56 135 0.0 3.0 0.00 0.00 0.00 91 1013.1
20260903100901 56 297 0.0 2.0 0.00 0.00 0.00 90 1013.1
20260903100335 56 293 0.0 2.0 0.00 0.00 0.00 89 1013.0
20260903095831 57 291 1.0 7.0 0.00 0.00 0.00 88 1012.9
20260903095329 57 297 2.0 7.0 0.00 0.00 0.00 87 1012.9
20260903094824 57 321 4.0 8.0 0.00 0.00 0.00 87 1012.8
20260903094314 58 289 6.0 10.0 0.00 0.00 0.00 87 1012.8
20260903093810 58 301 7.0 14.0 0.00 0.00 0.00 87 1012.5
20260903093246 57 293 8.0 14.0 0.00 0.00 0.00 88 1012.3
20260903092717 57 274 8.0 11.0 0.00 0.00 0.00 90 1012.1
20260903092204 56 258 8.0 13.0 0.00 0.00 0.00 92 1011.9
20260903091701 56 241 8.0 13.0 0.00 0.00 0.00 95 1011.6
20260903091149 55 241 6.0 13.0 0.00 0.00 0.00 99 1011.3
20260903090651 54 252 3.0 10.0 0.00 0.00 0.00 99 1010.6
20260903090125 53 299 3.0 7.0 0.00 0.00 0.00 99 1010.2
20260903085611 52 228 4.0 9.0 0.00 0.00 0.00 99 1009.9
20260903085114 51 252 4.0 9.0 0.00 0.00 0.00 99 1009.8
20260903084823 51 177 3.0 9.0 0.00 0.00 0.00 99 1009.4
20260903084052 51 139 2.0 6.0 0.00 0.00 0.00 99 1008.9
20260903083822 51 177 3.0 9.0 0.00 0.00 0.00 98 1008.8
20260903083053 50 62 2.0 9.0 0.00 0.00 0.00 98 1008.7
20260903082754 51 118 1.0 3.0 0.00 0.00 0.00 98 1008.8
20260903082021 51 51 3.0 8.0 0.00 0.00 0.00 99 1008.7
20260903081453 51 154 3.0 8.0 0.00 0.00 0.00 99 1008.6
20260903080926 50 126 2.0 5.0 0.00 0.00 0.00 99 1008.7
20260903080419 49 230 2.0 5.0 0.00 0.00 0.00 99 1008.8
20260903075913 49 141 1.0 4.0 0.00 0.00 0.00 98 1008.8
20260903075412 48 23 2.0 4.0 0.00 0.00 0.00 98 1008.9
20260903074844 48 292 1.0 4.0 0.00 0.00 0.00 98 1008.9
20260903074316 48 329 1.0 3.0 0.00 0.00 0.00 98 1009.0
20260903073753 48 237 2.0 4.0 0.00 0.00 0.00 98 1009.0
20260903073525 48 18 2.0 4.0 0.00 0.00 0.00 98 1009.0
20260903072754 47 337 2.0 6.0 0.00 0.00 0.00 98 1009.3
20260903072254 47 63 1.0 6.0 0.00 0.00 0.00 98 1009.4
20260903071725 47 147 1.0 4.0 0.00 0.00 0.00 98 1009.4
20260903071501 46 357 0.0 2.0 0.00 0.00 0.00 98 1009.8
20260903071221 46 300 0.0 2.0 0.00 0.00 0.00 98 1009.6
20260903070213 46 22 1.0 4.0 0.00 0.00 0.00 98 1009.8
20260903065710 46 226 1.0 4.0 0.00 0.00 0.00 98 1009.7
20260903065204 46 198 1.0 3.0 0.00 0.00 0.00 97 1009.8
20260903064908 46 47 0.0 1.0 0.00 0.00 0.00 97 1009.8
20260903064113 46 42 0.0 2.0 0.00 0.00 0.00 97 1010.1
20260903063611 46 228 0.0 2.0 0.00 0.00 0.00 97 1010.1
20260903063111 46 285 1.0 4.0 0.00 0.00 0.00 97 1010.2
20260903062841 46 79 1.0 4.0 0.00 0.00 0.00 97 1010.4
20260903062108 46 236 0.0 2.0 0.00 0.00 0.00 97 1010.4
20260903061605 46 308 0.0 2.0 0.00 0.00 0.00 97 1010.4
20260903061337 46 70 0.0 2.0 0.00 0.00 0.00 97 1010.6
20260903060536 47 142 0.0 2.0 0.00 0.00 0.00 97 1010.7
20260903060011 47 22 0.0 2.0 0.00 0.00 0.00 97 1010.8
20260903055718 47 302 0.0 1.0 0.00 0.00 0.00 97 1011.0
20260903054919 46 302 0.0 1.0 0.00 0.00 0.00 97 1010.9
20260903054409 46 302 0.0 1.0 0.00 0.00 0.00 97 1010.9
20260903054138 46 318 0.0 2.0 0.00 0.00 0.00 97 1011.1
20260903053408 46 237 0.0 2.0 0.00 0.00 0.00 97 1011.2
20260903052838 46 325 0.0 0.0 0.00 0.00 0.00 97 1011.4
20260903052311 47 325 0.0 1.0 0.00 0.00 0.00 97 1011.6
20260903051750 47 307 0.0 1.0 0.00 0.00 0.00 97 1011.6
20260903051741 47 298 0.0 0.0 0.00 0.00 0.00 97 1011.6
20260903050736 47 302 0.0 0.0 0.00 0.00 0.00 97 1011.7
20260903050235 47 302 0.0 0.0 0.00 0.00 0.00 97 1011.9
20260903045728 47 302 0.0 0.0 0.00 0.00 0.00 97 1012.0
20260903045227 47 302 0.0 1.0 0.00 0.00 0.00 97 1012.0
20260903044723 47 302 0.0 1.0 0.00 0.00 0.00 97 1012.2
20260903044431 47 302 0.0 1.0 0.00 0.00 0.00 97 1012.2
20260903043655 47 177 0.0 1.0 0.00 0.00 0.00 97 1012.5
20260903043132 48 87 0.0 1.0 0.00 0.00 0.00 97 1012.8
20260903042603 48 337 0.0 0.0 0.00 0.00 0.00 97 1012.9
20260903042307 48 337 0.0 0.0 0.00 0.00 0.00 97 1013.0
20260903041516 48 337 0.0 0.0 0.00 0.00 0.00 96 1013.0
20260903040953 48 337 0.0 0.0 0.00 0.00 0.00 97 1013.1
20260903040450 48 337 0.0 0.0 0.00 0.00 0.00 97 1013.2
20260903040204 49 337 0.0 0.0 0.00 0.00 0.00 97 1013.2
20260903035432 49 337 0.0 0.0 0.00 0.00 0.00 97 1013.2
20260903034908 49 337 0.0 0.0 0.00 0.00 0.00 97 1013.3
20260903034348 49 337 0.0 1.0 0.00 0.00 0.00 97 1013.5
20260903033822 49 337 0.0 1.0 0.00 0.00 0.00 96 1013.5
20260903033253 49 337 0.0 0.0 0.00 0.00 0.00 96 1013.7
20260903032727 49 337 0.0 0.0 0.00 0.00 0.00 96 1013.7
20260903032217 49 337 0.0 0.0 0.00 0.00 0.00 96 1013.8
20260903031717 49 337 0.0 2.0 0.00 0.00 0.00 96 1013.9
20260903031216 49 337 0.0 2.0 0.00 0.00 0.00 96 1014.0
20260903030721 50 337 0.0 0.0 0.00 0.00 0.00 96 1014.0
20260903030155 50 337 0.0 0.0 0.00 0.00 0.00 96 1013.9
20260903025643 50 337 0.0 1.0 0.00 0.00 0.00 97 1014.1
20260903025140 50 337 0.0 1.0 0.00 0.00 0.00 96 1014.0
20260903024638 50 337 0.0 1.0 0.00 0.00 0.00 96 1014.2
20260903024131 50 337 0.0 0.0 0.00 0.00 0.00 96 1014.2
20260903023834 50 337 0.0 0.0 0.00 0.00 0.00 96 1014.3
20260903023036 50 337 0.0 0.0 0.00 0.00 0.00 96 1014.4
20260903022508 51 337 0.0 0.0 0.00 0.00 0.00 96 1014.3
20260903021949 51 337 0.0 0.0 0.00 0.00 0.00 96 1014.3
20260903021449 51 337 0.0 0.0 0.00 0.00 0.00 96 1014.5
20260903020955 51 337 0.0 0.0 0.00 0.00 0.00 96 1014.6
20260903020947 51 337 0.0 0.0 0.00 0.00 0.00 96 1014.5
20260903020201 51 337 0.0 0.0 0.00 0.00 0.00 96 1014.6
20260903020039 51 337 0.0 0.0 0.00 0.00 0.00 96 1014.7
20260903014929 51 337 0.0 0.0 0.00 0.00 0.00 96 1014.9
20260903014426 51 337 0.0 0.0 0.00 0.00 0.00 95 1014.9
20260903013924 51 337 0.0 0.0 0.00 0.00 0.00 96 1014.8
20260903013357 52 337 0.0 0.0 0.00 0.00 0.00 96 1014.8
20260903012850 52 337 0.0 0.0 0.00 0.00 0.00 96 1015.0
20260903012349 52 337 0.0 0.0 0.00 0.00 0.00 95 1014.9
20260903011844 52 337 0.0 0.0 0.00 0.00 0.00 95 1014.8
20260903011344 53 337 0.0 0.0 0.00 0.00 0.00 96 1014.9
20260903010844 53 337 0.0 0.0 0.00 0.00 0.00 96 1014.9
20260903010614 53 337 0.0 0.0 0.00 0.00 0.00 96 1015.0
20260903010116 53 337 0.0 0.0 0.00 0.00 0.00 95 1015.0
20260903005339 53 337 0.0 0.0 0.00 0.00 0.00 95 1015.1
20260903005109 53 337 0.0 0.0 0.00 0.00 0.00 95 1015.1
20260903004315 53 337 0.0 0.0 0.00 0.00 0.00 95 1015.1
20260903003753 53 337 0.0 0.0 0.00 0.00 0.00 95 1015.2
20260903003526 53 337 0.0 0.0 0.00 0.00 0.00 94 1015.0
20260903002752 53 337 0.0 0.0 0.00 0.00 0.00 94 1015.0
20260903002252 54 337 0.0 0.0 0.00 0.00 0.00 94 1015.1
20260903001721 54 337 0.0 2.0 0.00 0.00 0.00 94 1015.1
20260903001157 54 337 0.0 2.0 0.00 0.00 0.00 94 1015.1
20260903000651 54 337 0.0 0.0 0.00 0.00 0.00 94 1015.1
20260903000146 54 337 0.0 0.0 0.00 0.00 0.00 93 1015.1
20260902235642 55 337 0.0 0.0 0.00 0.00 0.00 93 1015.1
20260902235114 55 337 0.0 2.0 0.00 0.00 0.00 93 1015.1
20260902234613 55 337 0.0 2.0 0.00 0.00 0.00 92 1015.1
20260902234346 55 337 0.0 2.0 0.00 0.00 0.00 93 1015.3
20260902233611 56 279 0.0 0.0 0.00 0.00 0.00 92 1015.2
20260902233112 56 279 0.0 0.0 0.00 0.00 0.00 93 1015.2
20260902232549 56 279 0.0 0.0 0.00 0.00 0.00 92 1015.2
20260902232030 56 279 0.0 0.0 0.00 0.00 0.00 92 1015.2
20260902231527 56 279 0.0 0.0 0.00 0.00 0.00 91 1015.2
20260902231027 57 279 0.0 0.0 0.00 0.00 0.00 92 1015.2
20260902230526 57 279 0.0 0.0 0.00 0.00 0.00 92 1015.2
20260902230026 57 279 0.0 0.0 0.00 0.00 0.00 92 1015.1
20260902225523 57 279 0.0 0.0 0.00 0.00 0.00 92 1015.1
20260902225005 58 279 0.0 2.0 0.00 0.00 0.00 92 1015.1
20260902224705 58 279 1.0 2.0 0.00 0.00 0.00 92 1015.0
20260902223906 58 279 0.0 2.0 0.00 0.00 0.00 91 1015.0
20260902223620 58 279 0.0 2.0 0.00 0.00 0.00 90 1014.9
20260902222849 59 279 1.0 2.0 0.00 0.00 0.00 91 1014.8
20260902222345 59 279 1.0 2.0 0.00 0.00 0.00 92 1014.8
20260902222116 59 279 1.0 2.0 0.00 0.00 0.00 91 1014.8
20260902221341 60 279 0.0 2.0 0.00 0.00 0.00 90 1014.7
20260902220843 60 279 1.0 2.0 0.00 0.00 0.00 90 1014.8
20260902220318 60 279 0.0 2.0 0.00 0.00 0.00 89 1015.0
20260902215756 61 279 0.0 0.0 0.00 0.00 0.00 88 1015.0
20260902215232 61 279 0.0 0.0 0.00 0.00 0.00 87 1015.0
20260902214707 61 279 0.0 0.0 0.00 0.00 0.00 85 1014.9
20260902214207 62 279 0.0 0.0 0.00 0.00 0.00 85 1014.9
20260902213641 62 279 0.0 1.0 0.00 0.00 0.00 85 1015.0
20260902213347 63 279 0.0 1.0 0.00 0.00 0.00 85 1014.9
20260902212615 63 279 0.0 1.0 0.00 0.00 0.00 84 1014.9
20260902212115 64 279 0.0 2.0 0.00 0.00 0.00 83 1015.0
20260902211612 64 279 0.0 2.0 0.00 0.00 0.00 83 1015.1
20260902211113 65 279 0.0 1.0 0.00 0.00 0.00 82 1015.2
20260902210549 65 279 1.0 3.0 0.00 0.00 0.00 81 1015.2
20260902210037 66 279 2.0 3.0 0.00 0.00 0.00 80 1015.2
20260902205537 67 272 2.0 3.0 0.00 0.00 0.00 78 1015.2
20260902205042 68 285 2.0 3.0 0.00 0.00 0.00 77 1015.3
20260902204513 70 285 2.0 3.0 0.00 0.00 0.00 74 1015.2
20260902204212 72 275 1.0 2.0 0.00 0.00 0.00 72 1015.2
20260902203418 73 299 1.0 3.0 0.00 0.00 0.00 69 1015.3
20260902202854 74 299 1.0 3.0 0.00 0.00 0.00 66 1015.2
20260902202347 75 317 1.0 3.0 0.00 0.00 0.00 65 1015.3
20260902201824 76 329 1.0 3.0 0.00 0.00 0.00 65 1015.3
20260902201259 76 136 0.0 0.0 0.00 0.00 0.00 64 1015.3
20260902200749 76 136 0.0 2.0 0.00 0.00 0.00 63 1015.2
20260902200224 75 136 0.0 2.0 0.00 0.00 0.00 67 1015.2
20260902195713 75 136 0.0 2.0 0.00 0.00 0.00 60 1015.3
20260902195215 75 187 0.0 2.0 0.00 0.00 0.00 61 1015.4
20260902194710 75 128 0.0 2.0 0.00 0.00 0.00 60 1015.5
20260902194209 75 270 0.0 2.0 0.00 0.00 0.00 60 1015.5
20260902194146 75 203 1.0 3.0 0.00 0.00 0.00 61 1015.6
20260902193345 75 150 1.0 5.0 0.00 0.00 0.00 61 1015.7
20260902192549 75 208 1.0 5.0 0.00 0.00 0.00 62 1015.8
20260902192543 74 147 1.0 3.0 0.00 0.00 0.00 64 1015.7
20260902191513 75 187 1.0 3.0 0.00 0.00 0.00 62 1015.7
20260902191225 75 206 2.0 6.0 0.00 0.00 0.00 63 1015.8
20260902190725 75 270 3.0 6.0 0.00 0.00 0.00 63 1015.7
20260902185951 75 243 2.0 5.0 0.00 0.00 0.00 65 1015.7
20260902185452 75 160 1.0 4.0 0.00 0.00 0.00 65 1015.7
20260902185220 75 278 2.0 7.0 0.00 0.00 0.00 61 1015.7
20260902184417 75 35 1.0 7.0 0.00 0.00 0.00 64 1015.8
20260902183917 75 312 2.0 4.0 0.00 0.00 0.00 65 1015.8
20260902183621 75 214 1.0 4.0 0.00 0.00 0.00 63 1015.9
20260902182825 75 243 0.0 3.0 0.00 0.00 0.00 64 1016.0
20260902182307 74 294 1.0 4.0 0.00 0.00 0.00 70 1016.2
20260902181807 74 291 1.0 4.0 0.00 0.00 0.00 68 1016.1
20260902181241 74 285 2.0 4.0 0.00 0.00 0.00 67 1016.1
20260902180731 73 227 2.0 4.0 0.00 0.00 0.00 67 1016.3
20260902180230 73 98 1.0 7.0 0.00 0.00 0.00 69 1016.3